This is the latest recevied weather packets stored in our database for station/object K1BWE-1. If no packets are shown the sender has not sent any weather packets the latest 10 day(s).
| Time | Temp. | Humidity | Pressure | Rain* | Wind** | Luminosity | Snow |
|---|---|---|---|---|---|---|---|
| 1778096468 | 22.78° C | 23% | 1017.2 hPa | 0 mm | - | 737 W/m² | - |
| 1778096166 | 22.78° C | 23% | 1017.1 hPa | 0 mm | - | 726 W/m² | - |
| 1778095863 | 23.33° C | 26% | 1017.1 hPa | 0 mm | - | 723 W/m² | - |
| 1778095560 | 23.33° C | 24% | 1017.3 hPa | 0 mm | - | 763 W/m² | - |
| 1778095255 | 22.78° C | 28% | 1017.2 hPa | 0 mm | - | 783 W/m² | - |
| 1778094952 | 22.78° C | 28% | 1017.5 hPa | 0 mm | - | 772 W/m² | - |
| 1778094648 | 22.22° C | 27% | 1017.5 hPa | 0 mm | - | 784 W/m² | - |
| 1778094345 | 22.22° C | 25% | 1017.4 hPa | 0 mm | - | 764 W/m² | - |
| 1778094042 | 22.78° C | 28% | 1017.2 hPa | 0 mm | - | 760 W/m² | - |
| 1778093740 | 22.22° C | 28% | 1017.5 hPa | 0 mm | - | 762 W/m² | - |
| 1778093436 | 21.67° C | 27% | 1017.4 hPa | 0 mm | - | 778 W/m² | - |
| 1778093133 | 22.22° C | 29% | 1017.4 hPa | 0 mm | - | 769 W/m² | - |
| 1778092831 | 22.22° C | 28% | 1017.5 hPa | 0 mm | - | 755 W/m² | - |
| 1778092526 | 21.67° C | 28% | 1017.5 hPa | 0 mm | - | 736 W/m² | - |
| 1778092223 | 22.22° C | 31% | 1017.5 hPa | 0 mm | - | 751 W/m² | - |
| 1778091921 | 21.67° C | 27% | 1017.7 hPa | 0 mm | - | 756 W/m² | - |
| 1778091618 | 21.67° C | 28% | 1017.8 hPa | 0 mm | - | 750 W/m² | - |
| 1778091316 | 21.67° C | 31% | 1017.9 hPa | 0 mm | - | 757 W/m² | - |
| 1778091012 | 21.67° C | 27% | 1017.8 hPa | 0 mm | - | 767 W/m² | - |
| 1778090709 | 22.22° C | 27% | 1017.8 hPa | 0 mm | - | 791 W/m² | - |
| 1778090405 | 22.22° C | 28% | 1018.1 hPa | 0 mm | - | 780 W/m² | - |
| 1778090102 | 22.22° C | 29% | 1017.9 hPa | 0 mm | - | 749 W/m² | - |
| 1778089798 | 22.22° C | 30% | 1018.1 hPa | 0 mm | - | 718 W/m² | - |
| 1778089497 | 21.67° C | 28% | 1017.9 hPa | 0 mm | - | 733 W/m² | - |
| 1778089193 | 21.67° C | 31% | 1018.1 hPa | 0 mm | - | 723 W/m² | - |
* Rain latest hour (hover to see other rain measurements)
** Current wind speed in m/s (hover to see current wind gust speed)